Hourly Data Report for April 17, 2019

OTTAWA INTL A
ONTARIO
Current Station Operator: NAVCAN

45°19'00.000" N
75°40'00.000" W
114.90 m
6106001
71628
YOW

Download Data

Hourly Data (April 2019)
Hourly Data Report for April 17, 2019
TIME
LST
Temp Definition
°C
Dew Point Definition
°C
Rel Hum Definition
%
Precip. Amount Definition
mm

Wind Dir Definition
10's deg

Wind Spd Definition
km/h
Visibility Definition
km
Stn Press Definition
kPa
Hmdx Definition


Wind Chill Definition


Weather Definition


00:00 2.1 -4.5 62   31 8 24.1 100.43     LegendNANA
01:00 0.0 -3.9 75   26 4 24.1 100.47   -1 Clear
02:00 -0.5 -3.9 78   29 3 24.1 100.50   -1 LegendNANA
03:00 -0.6 -3.8 79   34 6 24.1 100.55   -3 LegendNANA
04:00 -0.9 -4.8 75   2 4 24.1 100.57   -2 Clear
05:00 1.6 -4.8 62   33 7 24.1 100.64     LegendNANA
06:00 -0.3 -3.4 80   32 9 24.1 100.72   -3 LegendNANA
07:00 2.8 -2.7 67   30 7 24.1 100.78     Clear
08:00 6.8 -3.2 49   36 5 24.1 100.85     LegendNANA
09:00 9.3 -4.4 38   36 3 24.1 100.85     LegendNANA
10:00 11.1 -7.2 27   36 8 24.1 100.84     Clear
11:00 11.8 -6.6 27   36 3 24.1 100.84     LegendNANA
12:00 13.1 -6.4 25   4 12 24.1 100.82     LegendNANA
13:00 13.3 -6.0 25   9 5 24.1 100.82     Mainly Clear
14:00 13.3 -6.5 25   24 5 24.1 100.76     LegendNANA
15:00 14.0 -5.7 25   10 9 24.1 100.67     LegendNANA
16:00 13.5 -5.9 25   16 4 24.1 100.63     Mainly Clear
17:00 13.8 -5.9 25   8 15 24.1 100.62     LegendNANA
18:00 12.2 -6.2 27   8 14 24.1 100.63     LegendNANA
19:00 8.8 -4.5 39   9 11 24.1 100.61     Mainly Clear
20:00 7.5 -4.0 44   7 13 24.1 100.59     LegendNANA
21:00 7.5 -4.9 41   8 16 24.1 100.63     LegendNANA
22:00 7.0 -4.0 45   9 18 24.1 100.55     Mainly Clear
23:00 7.0 -4.6 43   9 22 24.1 100.46     LegendNANA

Notes on Data Quality.

Legend

  • E = Estimated
  • M = Missing
  • NA = Not Available*
  • [empty] = Indicates an unobserved value
Date modified: